User: anonymous   Login
Location: Unspecified
(0.0000°N, 0.0000°E)
Time: 23:19:24
(UTC+00:00)
Language:

USA 274 - Orbit

View from above orbital plane
View from above orbital plane
View from above satellite
View from above satellite

Ground track
Ground track

The orbit data is extracted from the following two-line orbital elements,

1 42058U 17011A   17334.73632233 0.00000000  00000-0  00000-0 0    09
2 42058  63.4462 173.6298 0102000 177.0156 182.9844 13.40739985    07
Epoch (UTC): 30 November 2017 17:40:18
Eccentricity: 0.0102000
inclination: 63.4462°
perigee height: 1030 km
apogee height: 1183 km
right ascension of ascending node: 173.6298°
argument of perigee: 177.0156°
revolutions per day: 13.40739985
mean anomaly at epoch: 182.9844°
orbit number at epoch: 0

The dashed part of the orbit path shows where the satellite is in the earth's shadow,  

DLR